When you browse on this site, cookies collect data to enhance your experience and personalize the content and advertising you see.
Visit our Privacy Policy to learn more. By continuing to use the site, you agree to this use of cookies and data.
  • In Sweden
  • List of Countries
  • For 7 days
  • Water Temperature
  • Weather Map
  • Weather Widgets
  • user-avatar
    Login

    Hourly Weather Nizhnie Dupli

    Today, 16 September, Monday

    Time Temperature Precipitation Wind Pressure Humidity
    00:00 +10°C° 0.1 mm 4 mps 741 mmHg 93%
    01:00 +8°C° 0.1 mm 4 mps 740 mmHg 92%
    02:00 +8°C° 0.1 mm 4 mps 740 mmHg 91%
    03:00 +7°C° 0.1 mm 5 mps 740 mmHg 91%
    04:00 +7°C° 0.1 mm 5 mps 740 mmHg 91%
    05:00 +7°C° 0.1 mm 5 mps 740 mmHg 91%
    06:00 +8°C° 0 mm 5 mps 740 mmHg 90%
    07:00 +8°C° 0 mm 5 mps 740 mmHg 90%
    08:00 +9°C° 0 mm 6 mps 740 mmHg 89%
    09:00 +10°C° 0.2 mm 6 mps 740 mmHg 86%
    10:00 +10°C° 0.2 mm 6 mps 740 mmHg 83%
    11:00 +11°C° 0.2 mm 6 mps 740 mmHg 81%
    12:00 +11°C° 0.4 mm 6 mps 740 mmHg 79%
    13:00 +12°C° 0.4 mm 7 mps 739 mmHg 77%
    14:00 +12°C° 0.4 mm 7 mps 739 mmHg 76%
    15:00 +12°C° 0.5 mm 7 mps 740 mmHg 79%
    16:00 +11°C° 0.5 mm 6 mps 740 mmHg 82%
    17:00 +10°C° 0.5 mm 6 mps 740 mmHg 86%
    18:00 +9°C° 0.1 mm 6 mps 740 mmHg 87%
    19:00 +9°C° 0.1 mm 5 mps 740 mmHg 89%
    20:00 +8°C° 0.1 mm 5 mps 740 mmHg 90%
    21:00 +8°C° 0 mm 5 mps 740 mmHg 90%
    22:00 +7°C° 0 mm 5 mps 740 mmHg 90%
    23:00 +7°C° 0 mm 5 mps 740 mmHg 90%

    Tomorrow, 17 September, Tuesday

    Time Temperature Precipitation Wind Pressure Humidity
    00:00 +7°C° 0 mm 5 mps 740 mmHg 90%
    01:00 +6°C° 0 mm 5 mps 740 mmHg 90%
    02:00 +6°C° 0 mm 4 mps 740 mmHg 90%
    03:00 +6°C° 0 mm 4 mps 740 mmHg 90%
    04:00 +6°C° 0 mm 4 mps 740 mmHg 90%
    05:00 +6°C° 0 mm 4 mps 740 mmHg 90%
    06:00 +6°C° 0 mm 4 mps 740 mmHg 90%
    07:00 +8°C° 0 mm 3 mps 740 mmHg 90%
    08:00 +8°C° 0 mm 3 mps 740 mmHg 91%
    09:00 +9°C° 0.2 mm 3 mps 740 mmHg 89%
    10:00 +8°C° 0.2 mm 4 mps 740 mmHg 88%
    11:00 +10°C° 0.2 mm 4 mps 740 mmHg 87%
    12:00 +10°C° 0.2 mm 4 mps 740 mmHg 85%
    13:00 +10°C° 0.2 mm 4 mps 740 mmHg 83%
    14:00 +11°C° 0.2 mm 4 mps 740 mmHg 80%
    15:00 +10°C° 0.2 mm 4 mps 740 mmHg 81%
    16:00 +10°C° 0.2 mm 4 mps 740 mmHg 82%
    17:00 +9°C° 0.2 mm 3 mps 739 mmHg 83%
    18:00 +8°C° 0 mm 3 mps 739 mmHg 86%
    19:00 +8°C° 0 mm 2 mps 739 mmHg 89%
    20:00 +7°C° 0 mm 2 mps 739 mmHg 92%
    21:00 +8°C° 0.3 mm 1 mps 739 mmHg 93%
    22:00 +7°C° 0.3 mm 1 mps 739 mmHg 94%
    23:00 +7°C° 0.3 mm 1 mps 739 mmHg 95%

    Day after tomorrow, 18 September, Wednesday

    Time Temperature Precipitation Wind Pressure Humidity
    00:00 +7°C° 0.1 mm 1 mps 739 mmHg 95%
    01:00 +7°C° 0.1 mm 1 mps 739 mmHg 95%
    02:00 +7°C° 0.1 mm 1 mps 739 mmHg 95%
    03:00 +7°C° 0.4 mm 1 mps 740 mmHg 96%
    04:00 +7°C° 0.4 mm 1 mps 740 mmHg 96%
    05:00 +7°C° 0.4 mm 1 mps 740 mmHg 97%
    06:00 +6°C° 0.2 mm 2 mps 740 mmHg 95%
    07:00 +6°C° 0.2 mm 2 mps 740 mmHg 92%
    08:00 +7°C° 0.2 mm 2 mps 741 mmHg 90%
    09:00 +8°C° 0 mm 2 mps 741 mmHg 86%
    10:00 +9°C° 0 mm 2 mps 742 mmHg 82%
    11:00 +10°C° 0 mm 3 mps 742 mmHg 77%
    12:00 +10°C° 0.3 mm 3 mps 743 mmHg 77%
    13:00 +11°C° 0.3 mm 3 mps 743 mmHg 77%
    14:00 +11°C° 0.3 mm 3 mps 743 mmHg 77%
    15:00 +11°C° 0.3 mm 3 mps 744 mmHg 80%
    16:00 +10°C° 0.3 mm 3 mps 744 mmHg 84%
    17:00 +10°C° 0.3 mm 3 mps 744 mmHg 87%
    18:00 +9°C° 0.1 mm 2 mps 745 mmHg 90%
    19:00 +8°C° 0.1 mm 2 mps 746 mmHg 92%
    20:00 +7°C° 0.1 mm 2 mps 746 mmHg 95%
    21:00 +6°C° 0 mm 2 mps 747 mmHg 95%
    22:00 +5°C° 0 mm 2 mps 747 mmHg 96%
    23:00 +5°C° 0 mm 2 mps 748 mmHg 97%

    19 September, Thursday

    Time Temperature Precipitation Wind Pressure Humidity
    00:00 +4°C° 0 mm 2 mps 748 mmHg 96%
    01:00 +4°C° 0 mm 2 mps 748 mmHg 96%
    02:00 +3°C° 0 mm 2 mps 749 mmHg 95%
    03:00 +3°C° 0 mm 2 mps 749 mmHg 96%
    04:00 +3°C° 0 mm 2 mps 750 mmHg 96%
    05:00 +2°C° 0 mm 2 mps 750 mmHg 97%
    06:00 +3°C° 0 mm 2 mps 750 mmHg 95%
    07:00 +4°C° 0 mm 2 mps 751 mmHg 93%
    08:00 +5°C° 0 mm 2 mps 751 mmHg 91%
    09:00 +6°C° 0.1 mm 2 mps 752 mmHg 87%
    10:00 +6°C° 0.1 mm 2 mps 752 mmHg 83%
    11:00 +7°C° 0.1 mm 2 mps 752 mmHg 79%
    12:00 +8°C° 0.1 mm 2 mps 753 mmHg 76%
    13:00 +8°C° 0.1 mm 2 mps 753 mmHg 73%
    14:00 +9°C° 0.1 mm 2 mps 753 mmHg 69%
    15:00 +8°C° 0.1 mm 2 mps 753 mmHg 72%
    16:00 +8°C° 0.1 mm 2 mps 753 mmHg 75%
    17:00 +7°C° 0.1 mm 2 mps 753 mmHg 77%
    18:00 +6°C° 0 mm 2 mps 754 mmHg 82%
    19:00 +5°C° 0 mm 2 mps 754 mmHg 87%
    20:00 +4°C° 0 mm 2 mps 755 mmHg 92%
    21:00 +4°C° 0 mm 1 mps 755 mmHg 93%
    22:00 +4°C° 0 mm 1 mps 755 mmHg 94%
    23:00 +3°C° 0 mm 1 mps 755 mmHg 95%

    20 September, Friday

    Time Temperature Precipitation Wind Pressure Humidity
    00:00 +3°C° 0 mm 1 mps 755 mmHg 95%
    01:00 +2°C° 0 mm 1 mps 755 mmHg 94%
    02:00 +2°C° 0 mm 1 mps 756 mmHg 94%
    03:00 +2°C° 0 mm 1 mps 756 mmHg 94%
    04:00 +1°C° 0 mm 1 mps 756 mmHg 94%
    05:00 +1°C° 0 mm 1 mps 756 mmHg 94%
    06:00 +1°C° 0 mm 2 mps 756 mmHg 89%
    07:00 +2°C° 0 mm 2 mps 757 mmHg 84%
    08:00 +4°C° 0 mm 2 mps 757 mmHg 80%
    09:00 +5°C° 0 mm 2 mps 757 mmHg 74%
    10:00 +7°C° 0 mm 3 mps 758 mmHg 69%
    11:00 +9°C° 0 mm 3 mps 758 mmHg 64%
    12:00 +9°C° 0.1 mm 3 mps 758 mmHg 60%
    13:00 +9°C° 0.1 mm 3 mps 758 mmHg 56%
    14:00 +10°C° 0.1 mm 3 mps 758 mmHg 52%
    15:00 +9°C° 0 mm 3 mps 758 mmHg 57%
    16:00 +8°C° 0 mm 2 mps 758 mmHg 62%
    17:00 +9°C° 0 mm 1 mps 758 mmHg 67%
    18:00 +7°C° 0 mm 1 mps 758 mmHg 71%
    19:00 +6°C° 0 mm 1 mps 759 mmHg 76%
    20:00 +4°C° 0 mm 1 mps 759 mmHg 80%
    21:00 +4°C° 0 mm 1 mps 759 mmHg 81%
    22:00 +3°C° 0 mm 1 mps 759 mmHg 81%
    23:00 +3°C° 0 mm 1 mps 759 mmHg 82%

    21 September, Saturday

    Time Temperature Precipitation Wind Pressure Humidity
    00:00 +3°C° 0 mm 1 mps 759 mmHg 81%
    01:00 +3°C° 0 mm 2 mps 759 mmHg 79%
    02:00 +3°C° 0 mm 2 mps 759 mmHg 78%
    03:00 +3°C° 0 mm 2 mps 759 mmHg 81%
    04:00 +4°C° 0 mm 2 mps 759 mmHg 85%
    05:00 +3°C° 0 mm 3 mps 759 mmHg 88%
    06:00 +3°C° 0.1 mm 3 mps 758 mmHg 88%
    07:00 +4°C° 0.1 mm 3 mps 758 mmHg 89%
    08:00 +4°C° 0.1 mm 4 mps 758 mmHg 89%
    09:00 +5°C° 0.6 mm 4 mps 757 mmHg 91%
    10:00 +5°C° 0.6 mm 4 mps 757 mmHg 93%
    11:00 +5°C° 0.6 mm 4 mps 757 mmHg 96%
    12:00 +6°C° 0.5 mm 4 mps 757 mmHg 96%
    13:00 +7°C° 0.5 mm 3 mps 756 mmHg 97%
    14:00 +8°C° 0.5 mm 3 mps 756 mmHg 97%
    15:00 +9°C° 0.5 mm 3 mps 756 mmHg 97%
    16:00 +10°C° 0.5 mm 3 mps 756 mmHg 97%
    17:00 +11°C° 0.5 mm 3 mps 755 mmHg 96%
    18:00 +11°C° 0.1 mm 3 mps 755 mmHg 96%
    19:00 +11°C° 0.1 mm 4 mps 756 mmHg 95%
    20:00 +11°C° 0.1 mm 4 mps 756 mmHg 95%
    21:00 +11°C° 0 mm 4 mps 756 mmHg 95%
    22:00 +11°C° 0 mm 4 mps 755 mmHg 96%
    23:00 +10°C° 0 mm 4 mps 755 mmHg 97%
    Show more